Glasgow, United Kingdom

2:03 AM GMT on February 10, 2016 (GMT +0000)
Glasgow

Weather History for EGPF - September, 2012

Change the Weather History Date:

Saturday, September 29, 2012

  Actual Average Record
Temperature  
Mean Temperature 52 °F -  
Max Temperature 55 °F 53 °F - ()
Min Temperature 48 °F 42 °F - ()
Degree Days  
Heating Degree Days 14    
Growing Degree Days 2 (Base 50)    
Moisture  
Dew Point 45 °F    
Average Humidity 78    
Maximum Humidity 94    
Minimum Humidity 58    
Precipitation  
Precipitation 0.00 in - - ()
Sea Level Pressure  
Sea Level Pressure 29.84 in    
Wind  
Wind Speed 13 mph ()    
Max Wind Speed 20 mph    
Max Gust Speed 26 mph    
Visibility 5.9 miles    
Events Rain    
T = Trace of Precipitation, MM = Missing Value Source: Averaged Metar Reports

Daily Weather History Graph

Daily Weather History Graph

Search for Another Location

Airport or City:

Trip Planner

Search our weather history database for the weather conditions in past years. The results will help you decide how hot, cold, wet, or windy it might be!

Date:

Astronomy

Sep. 29, 2012 Rise Set
Actual Time 7:17 AM BST 6:57 PM BST
Civil Twilight 6:40 AM BST 7:34 PM BST
Nautical Twilight 5:57 AM BST 8:17 PM BST
Astronomical Twilight 5:11 AM BST 9:02 PM BST
Moon 6:16 PM BST (9/29) 6:35 AM BST (9/29)
Length of Visible Light 12h 53m
Length of Day
11h 40m
Full, 100% of the Moon is Illuminated
Sep 29
Full
Sep 30
Full
Oct 8
Last Quarter
Oct 15
New
Oct 22
First Quarter

Hourly Weather History & Observations

Time (BST) Temp. Dew Point Humidity Pressure Visibility Wind Dir Wind Speed Gust Speed Precip Events Conditions
12:20 AM 48.2 °F 44.6 °F 87% 29.68 in 6.2 mi WSW 15.0 mph - N/A   Scattered Clouds
12:50 AM 48.2 °F 44.6 °F 87% 29.68 in 5.0 mi WSW 11.5 mph - N/A Rain Light Rain
1:20 AM 50.0 °F 42.8 °F 76% 29.68 in 5.0 mi West 15.0 mph 26.5 mph N/A   Mostly Cloudy
1:50 AM 50.0 °F 42.8 °F 76% 29.68 in 6.2 mi West 18.4 mph - N/A   Scattered Clouds
2:20 AM 48.2 °F 42.8 °F 82% 29.68 in 6.2 mi West 17.3 mph - N/A   Light Drizzle
2:50 AM 48.2 °F 44.6 °F 87% 29.68 in 6.2 mi WSW 15.0 mph - N/A Rain Light Rain
3:20 AM 50.0 °F 44.6 °F 82% 29.71 in 6.2 mi West 15.0 mph - N/A   Mostly Cloudy
3:50 AM 50.0 °F 44.6 °F 82% 29.71 in 6.2 mi WSW 15.0 mph - N/A Rain Light Rain
4:20 AM 48.2 °F 44.6 °F 87% 29.71 in 5.0 mi WSW 12.7 mph - N/A Rain Light Rain
4:50 AM 50.0 °F 44.6 °F 82% 29.71 in 6.2 mi WSW 13.8 mph - N/A   Scattered Clouds
5:20 AM 48.2 °F 44.6 °F 87% 29.71 in 6.2 mi WSW 13.8 mph - N/A   Mostly Cloudy
5:50 AM 48.2 °F 44.6 °F 87% 29.74 in 6.2 mi West 13.8 mph - N/A   Mostly Cloudy
6:20 AM 48.2 °F 44.6 °F 87% 29.74 in 6.2 mi WSW 10.4 mph - N/A Rain Light Rain
6:50 AM 48.2 °F 46.4 °F 93% 29.74 in 6.2 mi WSW 11.5 mph - N/A   Scattered Clouds
7:20 AM 50.0 °F 44.6 °F 82% 29.77 in 6.2 mi WSW 9.2 mph - N/A   Scattered Clouds
7:50 AM 50.0 °F 44.6 °F 82% 29.77 in 6.2 mi WSW 10.4 mph - N/A   Mostly Cloudy
8:20 AM 50.0 °F 44.6 °F 82% 29.80 in 6.2 mi WSW 16.1 mph - N/A   Mostly Cloudy
8:50 AM 51.8 °F 46.4 °F 82% 29.83 in 6.2 mi WSW 15.0 mph - N/A   Mostly Cloudy
9:20 AM 53.6 °F 46.4 °F 77% 29.83 in 6.2 mi WSW 15.0 mph - N/A   Mostly Cloudy
9:50 AM 53.6 °F 46.4 °F 77% 29.86 in 6.2 mi West 16.1 mph - N/A   Scattered Clouds
10:20 AM 51.8 °F 44.6 °F 76% 29.86 in 6.2 mi West 16.1 mph - N/A   Scattered Clouds
10:50 AM 51.8 °F 46.4 °F 82% 29.86 in 6.2 mi West 13.8 mph - N/A   Scattered Clouds
11:20 AM 53.6 °F 46.4 °F 77% 29.86 in 6.2 mi West 13.8 mph - N/A   Scattered Clouds
11:50 AM 53.6 °F 42.8 °F 67% 29.89 in 6.2 mi West 18.4 mph - N/A   Scattered Clouds
12:20 PM 53.6 °F 42.8 °F 67% 29.89 in 6.2 mi West 17.3 mph - N/A   Scattered Clouds
12:50 PM 53.6 °F 42.8 °F 67% 29.89 in 6.2 mi WNW 17.3 mph - N/A   Scattered Clouds
1:20 PM 55.4 °F 42.8 °F 63% 29.89 in 6.2 mi WNW 16.1 mph - N/A   Scattered Clouds
1:50 PM 55.4 °F 42.8 °F 63% 29.89 in 6.2 mi WNW 17.3 mph - N/A   Scattered Clouds
2:20 PM 55.4 °F 42.8 °F 63% 29.92 in 6.2 mi WNW 15.0 mph - N/A   Scattered Clouds
2:50 PM 55.4 °F 41.0 °F 58% 29.92 in 6.2 mi West 19.6 mph - N/A   Scattered Clouds
3:20 PM 55.4 °F 41.0 °F 58% 29.92 in 6.2 mi West 18.4 mph - N/A   Scattered Clouds
3:50 PM 55.4 °F 44.6 °F 67% 29.92 in 6.2 mi West 16.1 mph - N/A   Scattered Clouds
4:20 PM 53.6 °F 42.8 °F 67% 29.92 in 6.2 mi West 12.7 mph - N/A   Mostly Cloudy
4:50 PM 55.4 °F 42.8 °F 63% 29.92 in 6.2 mi West 13.8 mph - N/A   Scattered Clouds
5:20 PM 53.6 °F 42.8 °F 67% 29.95 in 6.2 mi West 13.8 mph - N/A   Scattered Clouds
5:50 PM 53.6 °F 42.8 °F 67% 29.95 in 6.2 mi West 13.8 mph - N/A   Scattered Clouds
6:20 PM 51.8 °F 42.8 °F 71% 29.95 in 6.2 mi WSW 11.5 mph - N/A   Scattered Clouds
6:50 PM 51.8 °F 44.6 °F 76% 29.95 in 6.2 mi WSW 9.2 mph - N/A   Scattered Clouds
7:20 PM 51.8 °F 44.6 °F 76% 29.95 in 6.2 mi SW 6.9 mph - N/A   Mostly Cloudy
7:50 PM 51.8 °F 44.6 °F 76% 29.95 in 6.2 mi SW 6.9 mph - N/A   Mostly Cloudy
8:20 PM 50.0 °F 44.6 °F 82% 29.92 in 6.2 mi SW 9.2 mph - N/A   Mostly Cloudy
8:50 PM 50.0 °F 48.2 °F 94% 29.92 in 3.1 mi SW 10.4 mph - N/A Rain Light Rain
9:20 PM 50.0 °F 48.2 °F 94% 29.92 in 4.3 mi SSW 8.1 mph - N/A   Mostly Cloudy
9:50 PM 51.8 °F 50.0 °F 94% 29.92 in 6.2 mi South 8.1 mph - N/A Rain Light Rain
10:20 PM 51.8 °F 48.2 °F 88% 29.89 in 5.0 mi SSW 8.1 mph - N/A Rain Light Rain
10:50 PM 51.8 °F 48.2 °F 88% 29.86 in 5.6 mi WSW 5.8 mph - N/A Rain Light Rain
11:20 PM 53.6 °F 50.0 °F 88% 29.86 in 5.0 mi SSW 11.5 mph - N/A Rain Light Rain
11:50 PM 53.6 °F 50.0 °F 88% 29.83 in 5.0 mi SSW 12.7 mph - N/A Rain Light Rain